sat.trackr.live / text

‹ back to catalog

IRIDIUM 105

NORAD 41921 · 2017-003E

PAYLOAD ACTIVE UNKNOWN

§ Identity

Operator
Country
US
Launch date
2017-01-14
Launch site
AFWTR
Launch vehicle
Mass (kg)
RCS (m²)
2.25

Purposes: comms

External: N2YO · Heavens-Above · Gunter

§ Orbital elements

Epoch: 2026-09-14T07:40:25.244832Z

Period
100.40 min
Inclination
86.4007°
Eccentricity
0.0002281
Mean motion
14.34217572 rev/d
Perigee alt
776.0 km
Apogee alt
779.3 km
Semi-major
7,155.8 km
B*
2.3168e-5
RAAN
19.5942°
Arg perigee
98.4700°
Mean anomaly
261.6755°
Rev number
50,791

§ Raw data

IRIDIUM 1051 41921U 17003E   26257.31973663  .00000085  00000+0  23168-4 0  99942 41921  86.4007  19.5942 0002281  98.4700 261.6755 14.34217572507915

JSON: /api/v1/satellites/41921 · /tle

For live sub-satellite position, see the globe view (requires WebGL).

§ Visibility from observer

Set your observer location to see the next 7 days of passes ≥ 10°. The values pass through the URL so the page stays shareable.

No JS? Fill the form by hand. The geolocation button needs JavaScript.